owner,sensor,date,latitude,longitude,vertical_datum,wind_speed,wind_to_direction,wind_speed_of_gust,qcFlag 
COMPS,ioos:station:USF.COMPS:FHP:1,2019-11-01T00:54:00,28.1530,-82.8010,10.0,3.42,278.82,4.01,'11111222,11111222,11111222' 
COMPS,ioos:station:USF.COMPS:FHP:1,2019-11-01T01:54:00,28.1530,-82.8010,10.0,2.52,273.77,3.03,'11111222,11111222,11111222' 
COMPS,ioos:station:USF.COMPS:FHP:1,2019-11-01T02:54:00,28.1530,-82.8010,10.0,2.36,253.48,2.84,'11111222,11111222,11111222' 
COMPS,ioos:station:USF.COMPS:FHP:1,2019-11-01T03:54:00,28.1530,-82.8010,10.0,2.16,238.55,2.93,'11111222,11111222,11111222' 
COMPS,ioos:station:USF.COMPS:FHP:1,2019-11-01T04:54:00,28.1530,-82.8010,10.0,4.21,255.37,4.99,'11111222,11111222,11111222' 
COMPS,ioos:station:USF.COMPS:FHP:1,2019-11-01T05:54:00,28.1530,-82.8010,10.0,7.21,339.38,8.13,'11111222,11111222,11111222' 
COMPS,ioos:station:USF.COMPS:FHP:1,2019-11-01T06:54:00,28.1530,-82.8010,10.0,7.18,351.2,8.13,'11111222,11111222,11111222' 
COMPS,ioos:station:USF.COMPS:FHP:1,2019-11-01T07:54:00,28.1530,-82.8010,10.0,7.38,5.6,8.62,'11111222,11111222,11111222' 
COMPS,ioos:station:USF.COMPS:FHP:1,2019-11-01T08:54:00,28.1530,-82.8010,10.0,6.93,15.22,7.93,'11111222,11111222,11111222' 
COMPS,ioos:station:USF.COMPS:FHP:1,2019-11-01T09:54:00,28.1530,-82.8010,10.0,5.8,24.55,7.05,'11111222,11111222,11111222' 
COMPS,ioos:station:USF.COMPS:FHP:1,2019-11-01T10:54:00,28.1530,-82.8010,10.0,5.16,34.85,6.27,'11111222,11111222,11111222' 
COMPS,ioos:station:USF.COMPS:FHP:1,2019-11-01T11:54:00,28.1530,-82.8010,10.0,4.44,49.47,5.19,'11111222,11111222,11111222' 
COMPS,ioos:station:USF.COMPS:FHP:1,2019-11-01T12:54:00,28.1530,-82.8010,10.0,4.97,52.14,6.37,'11111222,11111222,11111222' 
COMPS,ioos:station:USF.COMPS:FHP:1,2019-11-01T13:54:00,28.1530,-82.8010,10.0,4.29,46.71,5.58,'11111222,11111222,11111222' 
COMPS,ioos:station:USF.COMPS:FHP:1,2019-11-01T14:54:00,28.1530,-82.8010,10.0,3.05,64.31,4.01,'11111222,11111222,11111222' 
COMPS,ioos:station:USF.COMPS:FHP:1,2019-11-01T15:54:00,28.1530,-82.8010,10.0,0.93,31.62,1.66,'11111222,11111222,11111222' 
COMPS,ioos:station:USF.COMPS:FHP:1,2019-11-01T16:54:00,28.1530,-82.8010,10.0,2.94,338.1,3.72,'11111222,11111222,11111222' 
COMPS,ioos:station:USF.COMPS:FHP:1,2019-11-01T17:54:00,28.1530,-82.8010,10.0,4.33,350.73,5.39,'11111222,11111222,11111222' 
COMPS,ioos:station:USF.COMPS:FHP:1,2019-11-01T18:54:00,28.1530,-82.8010,10.0,4.91,342.01,6.07,'11111222,11111222,11111222' 
COMPS,ioos:station:USF.COMPS:FHP:1,2019-11-01T19:54:00,28.1530,-82.8010,10.0,5.8,349.27,6.76,'11111222,11111222,11111222' 
COMPS,ioos:station:USF.COMPS:FHP:1,2019-11-01T20:54:00,28.1530,-82.8010,10.0,6.18,353.47,7.05,'11111222,11111222,11111222' 
COMPS,ioos:station:USF.COMPS:FHP:1,2019-11-01T21:54:00,28.1530,-82.8010,10.0,6.43,6.44,7.05,'11111222,11111222,11111222' 
COMPS,ioos:station:USF.COMPS:FHP:1,2019-11-01T22:54:00,28.1530,-82.8010,10.0,6.47,2.83,6.95,'11111222,11111222,11111222' 
COMPS,ioos:station:USF.COMPS:FHP:1,2019-11-01T23:54:00,28.1530,-82.8010,10.0,3.7,46.04,4.9,'11111222,11111222,11111222' 
COMPS,ioos:station:USF.COMPS:FHP:1,2019-11-02T00:54:00,28.1530,-82.8010,10.0,5.82,55.69,6.95,'11111222,11111222,11111222' 
COMPS,ioos:station:USF.COMPS:FHP:1,2019-11-02T01:54:00,28.1530,-82.8010,10.0,5.41,53.1,6.66,'11111222,11111222,11111222' 
COMPS,ioos:station:USF.COMPS:FHP:1,2019-11-02T02:54:00,28.1530,-82.8010,10.0,5.31,54.2,6.85,'11111222,11111222,11111222' 
COMPS,ioos:station:USF.COMPS:FHP:1,2019-11-02T03:54:00,28.1530,-82.8010,10.0,4.42,48.32,5.68,'11111222,11111222,11111222' 
COMPS,ioos:station:USF.COMPS:FHP:1,2019-11-02T04:54:00,28.1530,-82.8010,10.0,3.19,74.25,4.31,'11111222,11111222,11111222' 
COMPS,ioos:station:USF.COMPS:FHP:1,2019-11-02T05:54:00,28.1530,-82.8010,10.0,3.61,79.27,4.99,'11111222,11111222,11111222' 
COMPS,ioos:station:USF.COMPS:FHP:1,2019-11-02T06:54:00,28.1530,-82.8010,10.0,1.48,68.58,2.45,'11111222,11111222,11111222' 
COMPS,ioos:station:USF.COMPS:FHP:1,2019-11-02T07:54:00,28.1530,-82.8010,10.0,2.7,83.66,3.52,'11111222,11111222,11111222' 
COMPS,ioos:station:USF.COMPS:FHP:1,2019-11-02T08:54:00,28.1530,-82.8010,10.0,2.15,88.46,2.84,'11111222,11111222,11111222' 
COMPS,ioos:station:USF.COMPS:FHP:1,2019-11-02T09:54:00,28.1530,-82.8010,10.0,2.86,56.6,3.82,'11111222,11111222,11111222' 
COMPS,ioos:station:USF.COMPS:FHP:1,2019-11-02T10:54:00,28.1530,-82.8010,10.0,2.04,44.46,3.23,'11111222,11111222,11111222' 
COMPS,ioos:station:USF.COMPS:FHP:1,2019-11-02T11:54:00,28.1530,-82.8010,10.0,2.59,20.59,3.13,'11111222,11111222,11111222' 
COMPS,ioos:station:USF.COMPS:FHP:1,2019-11-02T12:54:00,28.1530,-82.8010,10.0,2.76,44.82,4.01,'11111222,11111222,11111222' 
COMPS,ioos:station:USF.COMPS:FHP:1,2019-11-02T13:54:00,28.1530,-82.8010,10.0,3.99,21.07,4.9,'11111222,11111222,11111222' 
COMPS,ioos:station:USF.COMPS:FHP:1,2019-11-02T14:54:00,28.1530,-82.8010,10.0,3.62,28.28,4.7,'11111222,11111222,11111222' 
COMPS,ioos:station:USF.COMPS:FHP:1,2019-11-02T15:54:00,28.1530,-82.8010,10.0,5.52,6.21,6.37,'11111222,11111222,11111222' 
COMPS,ioos:station:USF.COMPS:FHP:1,2019-11-02T16:54:00,28.1530,-82.8010,10.0,5.86,9.95,6.66,'11111222,11111222,11111222' 
COMPS,ioos:station:USF.COMPS:FHP:1,2019-11-02T17:54:00,28.1530,-82.8010,10.0,6.32,7.12,7.05,'11111222,11111222,11111222' 
COMPS,ioos:station:USF.COMPS:FHP:1,2019-11-02T18:54:00,28.1530,-82.8010,10.0,6.58,1.74,7.05,'11111222,11111222,11111222' 
COMPS,ioos:station:USF.COMPS:FHP:1,2019-11-02T19:54:00,28.1530,-82.8010,10.0,6.61,3.82,7.05,'11111222,11111222,11111222' 
COMPS,ioos:station:USF.COMPS:FHP:1,2019-11-02T20:54:00,28.1530,-82.8010,10.0,6.52,5.22,7.05,'11111222,11111222,11111222' 
COMPS,ioos:station:USF.COMPS:FHP:1,2019-11-02T21:54:00,28.1530,-82.8010,10.0,6.75,3.61,7.25,'11111222,11111222,11111222' 
COMPS,ioos:station:USF.COMPS:FHP:1,2019-11-02T22:54:00,28.1530,-82.8010,10.0,6.7,3.91,7.35,'11111222,11111222,11111222' 
COMPS,ioos:station:USF.COMPS:FHP:1,2019-11-02T23:54:00,28.1530,-82.8010,10.0,6.66,6.75,7.15,'11111222,11111222,11111222' 
COMPS,ioos:station:USF.COMPS:FHP:1,2019-11-03T00:54:00,28.1530,-82.8010,10.0,6.51,11.9,7.15,'11111222,11111222,11111222' 
COMPS,ioos:station:USF.COMPS:FHP:1,2019-11-03T01:54:00,28.1530,-82.8010,10.0,6.68,15.83,7.25,'11111222,11111222,11111222' 
COMPS,ioos:station:USF.COMPS:FHP:1,2019-11-03T02:54:00,28.1530,-82.8010,10.0,6.28,22.08,7.15,'11111222,11111222,11111222' 
COMPS,ioos:station:USF.COMPS:FHP:1,2019-11-03T03:54:00,28.1530,-82.8010,10.0,5.9,30.6,7.05,'11111222,11111222,11111222' 
COMPS,ioos:station:USF.COMPS:FHP:1,2019-11-03T04:54:00,28.1530,-82.8010,10.0,5.59,27.75,6.85,'11111222,11111222,11111222' 
COMPS,ioos:station:USF.COMPS:FHP:1,2019-11-03T05:54:00,28.1530,-82.8010,10.0,5.02,30.09,6.56,'11111222,11111222,11111222' 
COMPS,ioos:station:USF.COMPS:FHP:1,2019-11-03T06:54:00,28.1530,-82.8010,10.0,4.84,28.26,5.68,'11111222,11111222,11111222' 
COMPS,ioos:station:USF.COMPS:FHP:1,2019-11-03T07:54:00,28.1530,-82.8010,10.0,3.98,36.4,4.7,'11111222,11111222,11111222' 
COMPS,ioos:station:USF.COMPS:FHP:1,2019-11-03T08:54:00,28.1530,-82.8010,10.0,4.86,42.48,5.97,'11111222,11111222,11111222' 
COMPS,ioos:station:USF.COMPS:FHP:1,2019-11-03T09:54:00,28.1530,-82.8010,10.0,4.32,28.24,5.87,'11111222,11111222,11111222' 
COMPS,ioos:station:USF.COMPS:FHP:1,2019-11-03T10:54:00,28.1530,-82.8010,10.0,5.14,38.52,6.07,'11111222,11111222,11111222' 
COMPS,ioos:station:USF.COMPS:FHP:1,2019-11-03T11:54:00,28.1530,-82.8010,10.0,4.85,30.06,6.76,'11111222,11111222,11111222' 
COMPS,ioos:station:USF.COMPS:FHP:1,2019-11-03T12:54:00,28.1530,-82.8010,10.0,3.36,34.55,5.39,'11111222,11111222,11111222' 
COMPS,ioos:station:USF.COMPS:FHP:1,2019-11-03T13:54:00,28.1530,-82.8010,10.0,4.91,49.07,6.27,'11111222,11111222,11111222' 
COMPS,ioos:station:USF.COMPS:FHP:1,2019-11-03T14:54:00,28.1530,-82.8010,10.0,5.09,42.55,6.85,'11111222,11111222,11111222' 
COMPS,ioos:station:USF.COMPS:FHP:1,2019-11-03T15:54:00,28.1530,-82.8010,10.0,5.17,64.7,6.85,'11111222,11111222,11111222' 
COMPS,ioos:station:USF.COMPS:FHP:1,2019-11-03T16:54:00,28.1530,-82.8010,10.0,4.7,56.38,6.17,'11111222,11111222,11111222' 
COMPS,ioos:station:USF.COMPS:FHP:1,2019-11-03T17:54:00,28.1530,-82.8010,10.0,3.02,49.85,4.7,'11111222,11111222,11111222' 
COMPS,ioos:station:USF.COMPS:FHP:1,2019-11-03T18:54:00,28.1530,-82.8010,10.0,4.05,66.99,5.48,'11111222,11111222,11111222' 
COMPS,ioos:station:USF.COMPS:FHP:1,2019-11-03T19:54:00,28.1530,-82.8010,10.0,4.85,66.73,6.37,'11111222,11111222,11111222' 
COMPS,ioos:station:USF.COMPS:FHP:1,2019-11-03T20:54:00,28.1530,-82.8010,10.0,4.27,48.62,5.09,'11111222,11111222,11111222' 
COMPS,ioos:station:USF.COMPS:FHP:1,2019-11-03T21:54:00,28.1530,-82.8010,10.0,3.9,53.38,5.09,'11111222,11111222,11111222' 
COMPS,ioos:station:USF.COMPS:FHP:1,2019-11-03T22:54:00,28.1530,-82.8010,10.0,2.34,60.14,3.13,'11111222,11111222,11111222' 
COMPS,ioos:station:USF.COMPS:FHP:1,2019-11-03T23:54:00,28.1530,-82.8010,10.0,3.83,56.01,4.7,'11111222,11111222,11111222' 
COMPS,ioos:station:USF.COMPS:FHP:1,2019-11-04T00:54:00,28.1530,-82.8010,10.0,4.14,74.42,5.48,'11111222,11111222,11111222' 
COMPS,ioos:station:USF.COMPS:FHP:1,2019-11-04T01:54:00,28.1530,-82.8010,10.0,3.76,78.08,4.7,'11111222,11111222,11111222' 
COMPS,ioos:station:USF.COMPS:FHP:1,2019-11-04T02:54:00,28.1530,-82.8010,10.0,3.39,68.66,4.01,'11111222,11111222,11111222' 
COMPS,ioos:station:USF.COMPS:FHP:1,2019-11-04T03:54:00,28.1530,-82.8010,10.0,3.29,65.31,4.01,'11111222,11111222,11111222' 
COMPS,ioos:station:USF.COMPS:FHP:1,2019-11-04T04:54:00,28.1530,-82.8010,10.0,4.09,59.93,5.39,'11111222,11111222,11111222' 
COMPS,ioos:station:USF.COMPS:FHP:1,2019-11-04T05:54:00,28.1530,-82.8010,10.0,4.63,65.41,5.48,'11111222,11111222,11111222' 
COMPS,ioos:station:USF.COMPS:FHP:1,2019-11-04T14:54:00,28.1530,-82.8010,10.0,5.26,87.86,6.27,'11111222,11111222,11111222' 
COMPS,ioos:station:USF.COMPS:FHP:1,2019-11-04T15:54:00,28.1530,-82.8010,10.0,5.71,81.68,7.05,'11111222,11111222,11111222' 
COMPS,ioos:station:USF.COMPS:FHP:1,2019-11-04T16:54:00,28.1530,-82.8010,10.0,5.31,106.01,7.05,'11111222,11111222,11111222' 
COMPS,ioos:station:USF.COMPS:FHP:1,2019-11-04T17:54:00,28.1530,-82.8010,10.0,3.78,98.03,5.97,'11111222,11111222,11111222' 
COMPS,ioos:station:USF.COMPS:FHP:1,2019-11-04T18:54:00,28.1530,-82.8010,10.0,2.59,119.77,3.52,'11111222,11111222,11111222' 
COMPS,ioos:station:USF.COMPS:FHP:1,2019-11-04T19:54:00,28.1530,-82.8010,10.0,3.19,85.27,4.11,'11111222,11111222,11111222' 
COMPS,ioos:station:USF.COMPS:FHP:1,2019-11-04T20:54:00,28.1530,-82.8010,10.0,4.11,58.29,5.39,'11111222,11111222,11111222' 
COMPS,ioos:station:USF.COMPS:FHP:1,2019-11-04T21:54:00,28.1530,-82.8010,10.0,4.81,51.93,5.87,'11111222,11111222,11111222' 
COMPS,ioos:station:USF.COMPS:FHP:1,2019-11-04T22:54:00,28.1530,-82.8010,10.0,3.52,55.4,4.6,'11111222,11111222,11111222' 
COMPS,ioos:station:USF.COMPS:FHP:1,2019-11-04T23:54:00,28.1530,-82.8010,10.0,3.57,50.8,4.6,'11111222,11111222,11111222' 
COMPS,ioos:station:USF.COMPS:FHP:1,2019-11-05T00:54:00,28.1530,-82.8010,10.0,4.51,53.7,5.97,'11111222,11111222,11111222' 
COMPS,ioos:station:USF.COMPS:FHP:1,2019-11-05T01:54:00,28.1530,-82.8010,10.0,5.03,65.95,6.17,'11111222,11111222,11111222' 
COMPS,ioos:station:USF.COMPS:FHP:1,2019-11-05T02:54:00,28.1530,-82.8010,10.0,4.98,79.57,5.97,'11111222,11111222,11111222' 
COMPS,ioos:station:USF.COMPS:FHP:1,2019-11-05T03:54:00,28.1530,-82.8010,10.0,4.26,85.97,5.48,'11111222,11111222,11111222' 
COMPS,ioos:station:USF.COMPS:FHP:1,2019-11-05T04:54:00,28.1530,-82.8010,10.0,4.73,89.04,5.68,'11111222,11111222,11111222' 
COMPS,ioos:station:USF.COMPS:FHP:1,2019-11-05T05:54:00,28.1530,-82.8010,10.0,3.61,99.5,4.31,'11111222,11111222,11111222' 
COMPS,ioos:station:USF.COMPS:FHP:1,2019-11-05T06:54:00,28.1530,-82.8010,10.0,3.25,102.56,4.31,'11111222,11111222,11111222' 
COMPS,ioos:station:USF.COMPS:FHP:1,2019-11-05T07:54:00,28.1530,-82.8010,10.0,1.64,55.66,2.15,'11111222,11111222,11111222' 
COMPS,ioos:station:USF.COMPS:FHP:1,2019-11-05T08:54:00,28.1530,-82.8010,10.0,1.91,97.02,2.35,'11111222,11111222,11111222' 
COMPS,ioos:station:USF.COMPS:FHP:1,2019-11-05T09:54:00,28.1530,-82.8010,10.0,3.03,126.74,3.72,'11111222,11111222,11111222' 
COMPS,ioos:station:USF.COMPS:FHP:1,2019-11-05T10:54:00,28.1530,-82.8010,10.0,3.26,131.2,4.11,'11111222,11111222,11111222' 
COMPS,ioos:station:USF.COMPS:FHP:1,2019-11-05T11:54:00,28.1530,-82.8010,10.0,3.28,145.7,4.01,'11111222,11111222,11111222' 
COMPS,ioos:station:USF.COMPS:FHP:1,2019-11-05T12:54:00,28.1530,-82.8010,10.0,1.63,168.29,1.95,'11111222,11111222,11111222' 
COMPS,ioos:station:USF.COMPS:FHP:1,2019-11-05T13:54:00,28.1530,-82.8010,10.0,1.99,192.52,2.25,'11111222,11111222,11111222' 
COMPS,ioos:station:USF.COMPS:FHP:1,2019-11-05T14:54:00,28.1530,-82.8010,10.0,1.59,219.62,1.95,'11111222,11111222,11111222' 
COMPS,ioos:station:USF.COMPS:FHP:1,2019-11-05T15:54:00,28.1530,-82.8010,10.0,0.77,243.46,0.88,'11111222,11111222,11111222' 
COMPS,ioos:station:USF.COMPS:FHP:1,2019-11-05T16:54:00,28.1530,-82.8010,10.0,1.65,351.52,2.35,'11111222,11111222,11111222' 
COMPS,ioos:station:USF.COMPS:FHP:1,2019-11-05T17:54:00,28.1530,-82.8010,10.0,0.99,267.69,1.27,'11111222,11111222,11111222' 
COMPS,ioos:station:USF.COMPS:FHP:1,2019-11-05T18:54:00,28.1530,-82.8010,10.0,1.81,304.29,2.35,'11111222,11111222,11111222' 
COMPS,ioos:station:USF.COMPS:FHP:1,2019-11-05T19:54:00,28.1530,-82.8010,10.0,2.84,352.2,3.33,'11111222,11111222,11111222' 
COMPS,ioos:station:USF.COMPS:FHP:1,2019-11-05T20:54:00,28.1530,-82.8010,10.0,1.76,30.02,2.35,'11111222,11111222,11111222' 
COMPS,ioos:station:USF.COMPS:FHP:1,2019-11-05T21:54:00,28.1530,-82.8010,10.0,3.11,8.86,3.62,'11111222,11111222,11111222' 
COMPS,ioos:station:USF.COMPS:FHP:1,2019-11-05T22:54:00,28.1530,-82.8010,10.0,3.5,31.35,4.9,'11111222,11111222,11111222' 
COMPS,ioos:station:USF.COMPS:FHP:1,2019-11-05T23:54:00,28.1530,-82.8010,10.0,3.73,53.65,4.31,'11111222,11111222,11111222' 
COMPS,ioos:station:USF.COMPS:FHP:1,2019-11-06T00:54:00,28.1530,-82.8010,10.0,1.78,37.6,2.25,'11111222,11111222,11111222' 
COMPS,ioos:station:USF.COMPS:FHP:1,2019-11-06T01:54:00,28.1530,-82.8010,10.0,1.08,39.66,1.56,'11111222,11111222,11111222' 
COMPS,ioos:station:USF.COMPS:FHP:1,2019-11-06T02:54:00,28.1530,-82.8010,10.0,1.36,58.92,1.76,'11111222,11111222,11111222' 
COMPS,ioos:station:USF.COMPS:FHP:1,2019-11-06T03:54:00,28.1530,-82.8010,10.0,2.48,69.51,3.33,'11111222,11111222,11111222' 
COMPS,ioos:station:USF.COMPS:FHP:1,2019-11-06T04:54:00,28.1530,-82.8010,10.0,1.69,90.58,2.35,'11111222,11111222,11111222' 
COMPS,ioos:station:USF.COMPS:FHP:1,2019-11-06T05:54:00,28.1530,-82.8010,10.0,2.31,86.04,2.74,'11111222,11111222,11111222' 
COMPS,ioos:station:USF.COMPS:FHP:1,2019-11-06T06:54:00,28.1530,-82.8010,10.0,2.33,85.76,2.93,'11111222,11111222,11111222' 
COMPS,ioos:station:USF.COMPS:FHP:1,2019-11-06T07:54:00,28.1530,-82.8010,10.0,2.02,65.08,2.35,'11111222,11111222,11111222' 
COMPS,ioos:station:USF.COMPS:FHP:1,2019-11-06T08:54:00,28.1530,-82.8010,10.0,3.01,61.69,3.42,'11111222,11111222,11111222' 
COMPS,ioos:station:USF.COMPS:FHP:1,2019-11-06T09:54:00,28.1530,-82.8010,10.0,2.73,72.36,3.23,'11111222,11111222,11111222' 
COMPS,ioos:station:USF.COMPS:FHP:1,2019-11-06T10:54:00,28.1530,-82.8010,10.0,3.02,49.37,3.52,'11111222,11111222,11111222' 
COMPS,ioos:station:USF.COMPS:FHP:1,2019-11-06T11:54:00,28.1530,-82.8010,10.0,2.93,54.24,3.62,'11111222,11111222,11111222' 
COMPS,ioos:station:USF.COMPS:FHP:1,2019-11-06T12:54:00,28.1530,-82.8010,10.0,3.79,60.82,4.6,'11111222,11111222,11111222' 
COMPS,ioos:station:USF.COMPS:FHP:1,2019-11-06T13:54:00,28.1530,-82.8010,10.0,3.97,60.31,5.39,'11111222,11111222,11111222' 
COMPS,ioos:station:USF.COMPS:FHP:1,2019-11-06T14:54:00,28.1530,-82.8010,10.0,4.94,68.71,5.97,'11111222,11111222,11111222' 
COMPS,ioos:station:USF.COMPS:FHP:1,2019-11-06T15:54:00,28.1530,-82.8010,10.0,5.91,65.6,7.25,'11111222,11111222,11111222' 
COMPS,ioos:station:USF.COMPS:FHP:1,2019-11-06T16:54:00,28.1530,-82.8010,10.0,5.3,79.23,6.95,'11111222,11111222,11111222' 
COMPS,ioos:station:USF.COMPS:FHP:1,2019-11-06T17:54:00,28.1530,-82.8010,10.0,4.09,93.24,5.68,'11111222,11111222,11111222' 
COMPS,ioos:station:USF.COMPS:FHP:1,2019-11-06T18:54:00,28.1530,-82.8010,10.0,3.69,58.81,4.8,'11111222,11111222,11111222' 
COMPS,ioos:station:USF.COMPS:FHP:1,2019-11-06T19:54:00,28.1530,-82.8010,10.0,4.44,48.39,5.87,'11111222,11111222,11111222' 
COMPS,ioos:station:USF.COMPS:FHP:1,2019-11-06T20:54:00,28.1530,-82.8010,10.0,4.46,44.57,5.87,'11111222,11111222,11111222' 
COMPS,ioos:station:USF.COMPS:FHP:1,2019-11-06T21:54:00,28.1530,-82.8010,10.0,6.43,60.04,6.95,'11111222,11111222,11111222' 
COMPS,ioos:station:USF.COMPS:FHP:1,2019-11-06T22:54:00,28.1530,-82.8010,10.0,6.29,75.56,7.54,'11111222,11111222,11111222' 
COMPS,ioos:station:USF.COMPS:FHP:1,2019-11-06T23:54:00,28.1530,-82.8010,10.0,3.87,78.9,5.29,'11111222,11111222,11111222' 
COMPS,ioos:station:USF.COMPS:FHP:1,2019-11-07T00:54:00,28.1530,-82.8010,10.0,3.3,51.56,4.11,'11111222,11111222,11111222' 
COMPS,ioos:station:USF.COMPS:FHP:1,2019-11-07T01:54:00,28.1530,-82.8010,10.0,3.78,72.73,4.8,'11111222,11111222,11111222' 
COMPS,ioos:station:USF.COMPS:FHP:1,2019-11-07T02:54:00,28.1530,-82.8010,10.0,4.55,65.36,6.07,'11111222,11111222,11111222' 
COMPS,ioos:station:USF.COMPS:FHP:1,2019-11-07T03:54:00,28.1530,-82.8010,10.0,4.91,52.54,5.87,'11111222,11111222,11111222' 
COMPS,ioos:station:USF.COMPS:FHP:1,2019-11-07T04:54:00,28.1530,-82.8010,10.0,4.87,59.57,5.87,'11111222,11111222,11111222' 
COMPS,ioos:station:USF.COMPS:FHP:1,2019-11-07T05:54:00,28.1530,-82.8010,10.0,3.86,61.92,5.48,'11111222,11111222,11111222' 
COMPS,ioos:station:USF.COMPS:FHP:1,2019-11-07T06:54:00,28.1530,-82.8010,10.0,3.65,69.02,4.7,'11111222,11111222,11111222' 
COMPS,ioos:station:USF.COMPS:FHP:1,2019-11-07T07:54:00,28.1530,-82.8010,10.0,3.59,68.07,4.11,'11111222,11111222,11111222' 
COMPS,ioos:station:USF.COMPS:FHP:1,2019-11-07T08:54:00,28.1530,-82.8010,10.0,3.13,59.3,3.91,'11111222,11111222,11111222' 
COMPS,ioos:station:USF.COMPS:FHP:1,2019-11-07T09:54:00,28.1530,-82.8010,10.0,3.46,68.38,4.01,'11111222,11111222,11111222' 
COMPS,ioos:station:USF.COMPS:FHP:1,2019-11-07T10:54:00,28.1530,-82.8010,10.0,4.04,67.07,4.6,'11111222,11111222,11111222' 
COMPS,ioos:station:USF.COMPS:FHP:1,2019-11-07T11:54:00,28.1530,-82.8010,10.0,4.06,61.93,4.9,'11111222,11111222,11111222' 
COMPS,ioos:station:USF.COMPS:FHP:1,2019-11-07T12:54:00,28.1530,-82.8010,10.0,4.22,62.76,4.99,'11111222,11111222,11111222' 
COMPS,ioos:station:USF.COMPS:FHP:1,2019-11-07T13:54:00,28.1530,-82.8010,10.0,3.22,69.17,4.21,'11111222,11111222,11111222' 
COMPS,ioos:station:USF.COMPS:FHP:1,2019-11-07T14:54:00,28.1530,-82.8010,10.0,3.29,81.3,4.6,'11111222,11111222,11111222' 
COMPS,ioos:station:USF.COMPS:FHP:1,2019-11-07T15:54:00,28.1530,-82.8010,10.0,2.25,66.68,3.13,'11111222,11111222,11111222' 
COMPS,ioos:station:USF.COMPS:FHP:1,2019-11-07T16:54:00,28.1530,-82.8010,10.0,3.05,330.5,3.72,'11111222,11111222,11111222' 
COMPS,ioos:station:USF.COMPS:FHP:1,2019-11-07T17:54:00,28.1530,-82.8010,10.0,4.39,345.97,4.8,'11111222,11111222,11111222' 
COMPS,ioos:station:USF.COMPS:FHP:1,2019-11-07T18:54:00,28.1530,-82.8010,10.0,5.26,354.15,5.87,'11111222,11111222,11111222' 
COMPS,ioos:station:USF.COMPS:FHP:1,2019-11-07T19:54:00,28.1530,-82.8010,10.0,4.57,355.34,5.09,'11111222,11111222,11111222' 
COMPS,ioos:station:USF.COMPS:FHP:1,2019-11-07T20:54:00,28.1530,-82.8010,10.0,4.76,355.16,5.19,'11111222,11111222,11111222' 
COMPS,ioos:station:USF.COMPS:FHP:1,2019-11-07T21:54:00,28.1530,-82.8010,10.0,4.36,352.17,4.9,'11111222,11111222,11111222' 
COMPS,ioos:station:USF.COMPS:FHP:1,2019-11-07T22:54:00,28.1530,-82.8010,10.0,4.44,344.12,5.19,'11111222,11111222,11111222' 
COMPS,ioos:station:USF.COMPS:FHP:1,2019-11-07T23:54:00,28.1530,-82.8010,10.0,4.48,2.43,5.09,'11111222,11111222,11111222' 
COMPS,ioos:station:USF.COMPS:FHP:1,2019-11-08T00:54:00,28.1530,-82.8010,10.0,3.81,6.79,4.41,'11111222,11111222,11111222' 
COMPS,ioos:station:USF.COMPS:FHP:1,2019-11-08T01:54:00,28.1530,-82.8010,10.0,4.99,8.07,5.58,'11111222,11111222,11111222' 
COMPS,ioos:station:USF.COMPS:FHP:1,2019-11-08T02:54:00,28.1530,-82.8010,10.0,3.39,16.72,3.82,'11111222,11111222,11111222' 
COMPS,ioos:station:USF.COMPS:FHP:1,2019-11-08T03:54:00,28.1530,-82.8010,10.0,4.1,19.81,4.8,'11111222,11111222,11111222' 
COMPS,ioos:station:USF.COMPS:FHP:1,2019-11-08T04:54:00,28.1530,-82.8010,10.0,0.89,80.52,1.56,'11111222,11111222,11111222' 
COMPS,ioos:station:USF.COMPS:FHP:1,2019-11-08T05:54:00,28.1530,-82.8010,10.0,1.82,42.24,2.45,'11111222,11111222,11111222' 
COMPS,ioos:station:USF.COMPS:FHP:1,2019-11-08T06:54:00,28.1530,-82.8010,10.0,2.01,21.07,2.45,'11111222,11111222,11111222' 
COMPS,ioos:station:USF.COMPS:FHP:1,2019-11-08T07:54:00,28.1530,-82.8010,10.0,1.78,34.63,2.25,'11111222,11111222,11111222' 
COMPS,ioos:station:USF.COMPS:FHP:1,2019-11-08T08:54:00,28.1530,-82.8010,10.0,1.41,103.97,1.86,'11111222,11111222,11111222' 
COMPS,ioos:station:USF.COMPS:FHP:1,2019-11-08T09:54:00,28.1530,-82.8010,10.0,1.03,79.03,1.27,'11111222,11111222,11111222' 
COMPS,ioos:station:USF.COMPS:FHP:1,2019-11-08T10:54:00,28.1530,-82.8010,10.0,0.22,107.21,0.39,'11111222,11111222,11111222' 
COMPS,ioos:station:USF.COMPS:FHP:1,2019-11-08T11:54:00,28.1530,-82.8010,10.0,0.79,117.05,1.07,'11111222,11111222,11111222' 
COMPS,ioos:station:USF.COMPS:FHP:1,2019-11-08T12:54:00,28.1530,-82.8010,10.0,0.5,36.01,0.78,'11111222,11111222,11111222' 
COMPS,ioos:station:USF.COMPS:FHP:1,2019-11-08T13:54:00,28.1530,-82.8010,10.0,4.01,5.98,4.6,'11111222,11111222,11111222' 
COMPS,ioos:station:USF.COMPS:FHP:1,2019-11-08T14:54:00,28.1530,-82.8010,10.0,5.62,13.92,6.66,'11111222,11111222,11111222' 
COMPS,ioos:station:USF.COMPS:FHP:1,2019-11-08T15:54:00,28.1530,-82.8010,10.0,4.61,14.84,6.07,'11111222,11111222,11111222' 
COMPS,ioos:station:USF.COMPS:FHP:1,2019-11-08T16:54:00,28.1530,-82.8010,10.0,4.65,24.18,6.27,'11111222,11111222,11111222' 
COMPS,ioos:station:USF.COMPS:FHP:1,2019-11-08T17:54:00,28.1530,-82.8010,10.0,4.75,22.17,5.39,'11111222,11111222,11111222' 
COMPS,ioos:station:USF.COMPS:FHP:1,2019-11-08T18:54:00,28.1530,-82.8010,10.0,6.0,14.09,6.95,'11111222,11111222,11111222' 
COMPS,ioos:station:USF.COMPS:FHP:1,2019-11-08T19:54:00,28.1530,-82.8010,10.0,5.46,16.84,6.37,'11111222,11111222,11111222' 
COMPS,ioos:station:USF.COMPS:FHP:1,2019-11-08T20:54:00,28.1530,-82.8010,10.0,5.04,17.97,5.97,'11111222,11111222,11111222' 
COMPS,ioos:station:USF.COMPS:FHP:1,2019-11-08T21:54:00,28.1530,-82.8010,10.0,4.33,31.57,5.87,'11111222,11111222,11111222' 
COMPS,ioos:station:USF.COMPS:FHP:1,2019-11-08T22:54:00,28.1530,-82.8010,10.0,5.96,48.97,6.95,'11111222,11111222,11111222' 
COMPS,ioos:station:USF.COMPS:FHP:1,2019-11-08T23:54:00,28.1530,-82.8010,10.0,6.73,48.42,7.25,'11111222,11111222,11111222' 
COMPS,ioos:station:USF.COMPS:FHP:1,2019-11-09T00:54:00,28.1530,-82.8010,10.0,6.49,62.07,7.15,'11111222,11111222,11111222' 
COMPS,ioos:station:USF.COMPS:FHP:1,2019-11-09T01:54:00,28.1530,-82.8010,10.0,5.47,51.76,6.56,'11111222,11111222,11111222' 
COMPS,ioos:station:USF.COMPS:FHP:1,2019-11-09T02:54:00,28.1530,-82.8010,10.0,4.82,54.18,6.17,'11111222,11111222,11111222' 
COMPS,ioos:station:USF.COMPS:FHP:1,2019-11-09T03:54:00,28.1530,-82.8010,10.0,5.25,37.39,6.66,'11111222,11111222,11111222' 
COMPS,ioos:station:USF.COMPS:FHP:1,2019-11-09T04:54:00,28.1530,-82.8010,10.0,5.65,27.33,6.76,'11111222,11111222,11111222' 
COMPS,ioos:station:USF.COMPS:FHP:1,2019-11-09T05:54:00,28.1530,-82.8010,10.0,4.98,30.83,6.46,'11111222,11111222,11111222' 
COMPS,ioos:station:USF.COMPS:FHP:1,2019-11-09T06:54:00,28.1530,-82.8010,10.0,5.43,28.12,6.85,'11111222,11111222,11111222' 
COMPS,ioos:station:USF.COMPS:FHP:1,2019-11-09T07:54:00,28.1530,-82.8010,10.0,5.38,31.12,7.05,'11111222,11111222,11111222' 
COMPS,ioos:station:USF.COMPS:FHP:1,2019-11-09T08:54:00,28.1530,-82.8010,10.0,6.07,56.43,7.25,'11111222,11111222,11111222' 
COMPS,ioos:station:USF.COMPS:FHP:1,2019-11-09T09:54:00,28.1530,-82.8010,10.0,6.25,62.01,7.05,'11111222,11111222,11111222' 